DW1973 Weather Reports


Display with metric or nautical units.
time (UTC)temp
F
wind
direction
speed
MPH
gust
MPH
rain 1hr
in
rain 24hr
in
rain mn
in
humidity
%
barometer
mb
20260905011429 86 204 0.0 0.0 0.00 0.00 0.00 76 1012.7
20260905010936 87 204 0.0 0.0 0.00 0.00 0.00 75 1012.6
20260905010444 87 204 0.0 0.0 0.00 0.00 0.00 75 1012.4
20260905005915 87 204 0.0 0.0 0.00 0.00 0.00 75 1012.3
20260905005426 87 204 0.0 1.0 0.00 0.00 0.00 75 1012.2
20260905004928 87 204 0.0 1.0 0.00 0.00 0.00 75 1012.3
20260905004420 87 204 0.0 2.0 0.00 0.00 0.00 74 1012.3
20260905003929 87 204 0.0 3.0 0.00 0.00 0.00 74 1012.3
20260905003418 88 204 1.0 3.0 0.00 0.00 0.00 74 1012.1
20260905002929 88 204 0.0 3.0 0.00 0.00 0.00 73 1012.1
20260905002417 88 204 1.0 3.0 0.00 0.00 0.00 73 1012.0
20260905001925 88 204 2.0 3.0 0.00 0.00 0.00 72 1012.1
20260905001417 89 204 1.0 4.0 0.00 0.00 0.00 72 1012.2
20260905000925 89 205 2.0 4.0 0.00 0.00 0.00 71 1012.0
20260905000433 89 201 2.0 3.0 0.00 0.00 0.00 70 1012.0
20260904235945 89 200 2.0 3.0 0.00 0.00 0.00 70 1012.0
20260904235432 89 228 1.0 4.0 0.00 0.00 0.00 70 1012.2
20260904234921 89 209 2.0 4.0 0.00 0.00 0.00 69 1012.1
20260904234430 90 202 3.0 4.0 0.00 0.00 0.00 69 1012.1
20260904233916 90 209 2.0 5.0 0.00 0.00 0.00 69 1012.1
20260904233453 90 209 2.0 6.0 0.00 0.00 0.00 69 1012.3
20260904232922 90 214 3.0 6.0 0.00 0.00 0.00 69 1012.2
20260904232431 90 259 1.0 6.0 0.00 0.00 0.00 68 1012.3
20260904231920 91 227 3.0 6.0 0.00 0.00 0.00 68 1012.3
20260904231451 91 223 2.0 4.0 0.00 0.00 0.00 68 1012.4
20260904230939 91 221 2.0 6.0 0.00 0.00 0.00 67 1012.5
20260904230428 91 244 3.0 6.0 0.00 0.00 0.00 66 1012.4
20260904225918 91 213 1.0 5.0 0.00 0.00 0.00 66 1012.5
20260904225424 91 239 2.0 5.0 0.00 0.00 0.00 66 1012.4
20260904224929 91 210 3.0 7.0 0.00 0.00 0.00 66 1012.3
20260904224437 92 235 3.0 7.0 0.00 0.00 0.00 65 1012.3
20260904223942 92 259 1.0 6.0 0.00 0.00 0.00 65 1012.3
20260904223430 92 265 2.0 4.0 0.00 0.00 0.00 64 1012.5
20260904222940 92 213 1.0 7.0 0.00 0.00 0.00 65 1012.4
20260904222427 92 220 3.0 6.0 0.00 0.00 0.00 65 1012.5
20260904221916 92 255 2.0 6.0 0.00 0.00 0.00 66 1012.3
20260904221428 92 232 3.0 6.0 0.00 0.00 0.00 65 1012.3
20260904220937 92 207 2.0 5.0 0.00 0.00 0.00 65 1012.4
20260904220424 91 238 2.0 8.0 0.00 0.00 0.00 65 1012.3
20260904215949 91 267 2.0 8.0 0.00 0.00 0.00 65 1012.3
20260904215436 91 215 4.0 6.0 0.00 0.00 0.00 65 1012.3
20260904214942 91 219 3.0 9.0 0.00 0.00 0.00 65 1012.3
20260904214428 91 205 5.0 9.0 0.00 0.00 0.00 64 1012.2
20260904213934 92 241 5.0 8.0 0.00 0.00 0.00 64 1012.1
20260904213442 92 217 3.0 7.0 0.00 0.00 0.00 64 1012.1
20260904212928 92 217 2.0 7.0 0.00 0.00 0.00 64 1012.2
20260904212435 91 175 3.0 7.0 0.00 0.00 0.00 64 1012.1
20260904211921 91 234 3.0 8.0 0.00 0.00 0.00 64 1012.0
20260904211435 91 220 4.0 8.0 0.00 0.00 0.00 64 1012.1
20260904210924 91 225 4.0 8.0 0.00 0.00 0.00 64 1012.1
20260904210430 91 209 4.0 7.0 0.00 0.00 0.00 64 1012.2
20260904205917 91 208 4.0 7.0 0.00 0.00 0.00 65 1012.5
20260904205425 91 190 3.0 7.0 0.00 0.00 0.00 65 1012.6
20260904204934 91 215 4.0 7.0 0.00 0.00 0.00 66 1012.7
20260904204444 91 187 5.0 8.0 0.00 0.00 0.00 65 1012.7
20260904203954 91 216 3.0 8.0 0.00 0.00 0.00 65 1012.8
20260904203421 90 201 3.0 7.0 0.00 0.00 0.00 66 1012.9
20260904202933 90 155 3.0 6.0 0.00 0.00 0.00 66 1012.9
20260904202423 90 247 2.0 6.0 0.00 0.00 0.00 66 1012.9
20260904201932 90 173 3.0 7.0 0.00 0.00 0.00 66 1013.0
20260904201424 90 208 2.0 7.0 0.00 0.00 0.00 67 1013.0
20260904200931 90 204 3.0 6.0 0.00 0.00 0.00 67 1013.0
20260904200439 89 184 3.0 10.0 0.00 0.00 0.00 66 1013.1
20260904195927 89 222 4.0 10.0 0.00 0.00 0.00 66 1013.1
20260904195433 89 220 4.0 8.0 0.00 0.00 0.00 67 1013.2
20260904194921 89 191 4.0 7.0 0.00 0.00 0.00 66 1013.3
20260904194412 89 186 2.0 7.0 0.00 0.00 0.00 68 1013.4
20260904193921 89 162 4.0 7.0 0.00 0.00 0.00 67 1013.7
20260904193429 89 216 4.0 7.0 0.00 0.00 0.00 68 1013.8
20260904192919 88 216 3.0 8.0 0.00 0.00 0.00 67 1013.8
20260904192426 88 215 3.0 8.0 0.00 0.00 0.00 68 1013.9
20260904191915 88 153 4.0 8.0 0.00 0.00 0.00 68 1014.0
20260904191445 88 129 5.0 8.0 0.00 0.00 0.00 67 1013.9
20260904190931 88 196 3.0 8.0 0.00 0.00 0.00 68 1014.0
20260904190419 88 158 4.0 10.0 0.00 0.00 0.00 69 1013.9
20260904185928 87 134 5.0 10.0 0.00 0.00 0.00 68 1014.1
20260904185416 87 130 5.0 10.0 0.00 0.00 0.00 68 1014.1
20260904184919 87 150 4.0 10.0 0.00 0.00 0.00 69 1014.2
20260904184428 87 131 6.0 11.0 0.00 0.00 0.00 68 1014.2
20260904183918 87 150 7.0 12.0 0.00 0.00 0.00 69 1014.3
20260904183423 86 121 5.0 11.0 0.00 0.00 0.00 69 1014.3
20260904182934 86 182 7.0 13.0 0.00 0.00 0.00 68 1014.5
20260904182442 86 107 7.0 13.0 0.00 0.00 0.00 67 1014.6
20260904181913 86 124 6.0 11.0 0.00 0.00 0.00 68 1014.6
20260904181423 86 118 5.0 11.0 0.00 0.00 0.00 67 1014.6
20260904180932 86 114 4.0 13.0 0.00 0.00 0.00 67 1014.9
20260904180421 85 115 9.0 13.0 0.00 0.00 0.00 66 1015.1
20260904175913 85 145 6.0 13.0 0.00 0.00 0.00 68 1015.3
20260904175450 85 86 4.0 11.0 0.00 0.00 0.00 69 1015.6
20260904174916 85 220 3.0 9.0 0.00 0.00 0.00 68 1015.6
20260904174426 85 84 3.0 8.0 0.00 0.00 0.00 69 1015.8
20260904173936 85 67 3.0 8.0 0.00 0.00 0.00 68 1016.0
20260904173440 84 112 3.0 8.0 0.00 0.00 0.00 69 1016.0
20260904172929 84 48 2.0 7.0 0.00 0.00 0.00 70 1016.2
20260904172417 84 257 2.0 6.0 0.00 0.00 0.00 70 1016.2
20260904171924 83 19 3.0 13.0 0.00 0.00 0.00 70 1016.2
20260904171437 83 116 7.0 13.0 0.00 0.00 0.00 71 1016.2
20260904170949 83 34 2.0 11.0 0.00 0.00 0.00 71 1016.3
20260904170433 83 148 4.0 10.0 0.00 0.00 0.00 71 1016.2
20260904165953 83 121 4.0 8.0 0.00 0.00 0.00 71 1016.5
20260904165422 83 76 3.0 8.0 0.00 0.00 0.00 70 1016.6
20260904164927 83 55 2.0 12.0 0.00 0.00 0.00 72 1016.5
20260904164419 83 82 3.0 12.0 0.00 0.00 0.00 72 1016.6
20260904163925 83 109 3.0 11.0 0.00 0.00 0.00 71 1016.7
20260904163413 84 38 2.0 15.0 0.00 0.00 0.00 73 1016.7
20260904162926 84 94 5.0 15.0 0.00 0.00 0.00 71 1016.6
20260904162413 85 36 2.0 14.0 0.00 0.00 0.00 72 1016.5
20260904161919 85 5 2.0 9.0 0.00 0.00 0.00 72 1016.3
20260904161430 85 114 2.0 13.0 0.00 0.00 0.00 72 1016.3
20260904160917 85 17 4.0 13.0 0.00 0.00 0.00 73 1016.2
20260904160425 86 103 3.0 8.0 0.00 0.00 0.00 74 1016.1
20260904155915 86 108 2.0 12.0 0.00 0.00 0.00 74 1016.1
20260904155449 86 107 4.0 12.0 0.00 0.00 0.00 74 1016.1
20260904154935 86 36 3.0 10.0 0.00 0.00 0.00 74 1015.9
20260904154422 86 342 2.0 6.0 0.00 0.00 0.00 75 1015.8
20260904153930 86 360 2.0 5.0 0.00 0.00 0.00 74 1015.6
20260904153415 86 93 1.0 4.0 0.00 0.00 0.00 74 1015.5
20260904152955 86 104 1.0 4.0 0.00 0.00 0.00 75 1015.5
20260904152443 85 138 1.0 8.0 0.00 0.00 0.00 75 1015.4
20260904151948 85 351 1.0 8.0 0.00 0.00 0.00 75 1015.4
20260904151422 85 35 2.0 6.0 0.00 0.00 0.00 76 1015.4
20260904150928 85 5 3.0 6.0 0.00 0.00 0.00 75 1015.1
20260904150415 85 48 2.0 5.0 0.00 0.00 0.00 75 1015.2
20260904145927 85 355 1.0 5.0 0.00 0.00 0.00 75 1015.1
20260904145436 85 38 1.0 5.0 0.00 0.00 0.00 76 1015.1
20260904144919 85 30 0.0 3.0 0.00 0.00 0.00 75 1015.0
20260904144431 85 360 1.0 8.0 0.00 0.00 0.00 75 1014.9
20260904143921 86 18 3.0 8.0 0.00 0.00 0.00 74 1015.0
20260904143427 86 38 2.0 5.0 0.00 0.00 0.00 73 1014.8
20260904142938 86 70 1.0 5.0 0.00 0.00 0.00 73 1014.8
20260904142426 85 40 1.0 3.0 0.00 0.00 0.00 73 1014.9
20260904141913 85 13 0.0 2.0 0.00 0.00 0.00 74 1014.9
20260904141425 85 17 0.0 2.0 0.00 0.00 0.00 75 1015.1
20260904140935 84 24 0.0 2.0 0.00 0.00 0.00 75 1015.0
20260904140424 84 153 0.0 2.0 0.00 0.00 0.00 75 1014.9
20260904135933 84 153 0.0 2.0 0.00 0.00 0.00 75 1014.7
20260904135435 83 153 1.0 2.0 0.00 0.00 0.00 74 1014.6
20260904134943 83 76 0.0 2.0 0.00 0.00 0.00 76 1014.6
20260904134432 82 70 0.0 2.0 0.00 0.00 0.00 77 1014.6
20260904133939 82 76 0.0 0.0 0.00 0.00 0.00 80 1014.7
20260904133424 81 67 0.0 0.0 0.00 0.00 0.00 81 1014.6
20260904132918 80 67 0.0 1.0 0.00 0.00 0.00 81 1014.6
20260904132427 80 67 0.0 4.0 0.00 0.00 0.00 82 1014.7
20260904131915 79 77 1.0 4.0 0.00 0.00 0.00 83 1014.7
20260904131455 79 22 0.0 1.0 0.00 0.00 0.00 84 1014.7
20260904130939 79 42 0.0 3.0 0.00 0.00 0.00 84 1014.5
20260904130426 78 103 0.0 3.0 0.00 0.00 0.00 85 1014.5
20260904125950 78 178 1.0 2.0 0.00 0.00 0.00 85 1014.5
20260904125416 77 176 0.0 0.0 0.00 0.00 0.00 85 1014.4
20260904124925 77 182 0.0 0.0 0.00 0.00 0.00 85 1014.3
20260904124418 77 179 0.0 0.0 0.00 0.00 0.00 86 1014.1
20260904123927 77 182 0.0 0.0 0.00 0.00 0.00 86 1014.0
20260904123435 76 169 0.0 0.0 0.00 0.00 0.00 87 1013.9
20260904122926 76 161 0.0 0.0 0.00 0.00 0.00 87 1013.8
20260904122437 76 42 0.0 0.0 0.00 0.00 0.00 86 1013.7
20260904121925 76 43 0.0 0.0 0.00 0.00 0.00 86 1013.6
20260904121430 76 43 0.0 0.0 0.00 0.00 0.00 86 1013.5
20260904120915 76 46 0.0 2.0 0.00 0.00 0.00 86 1013.4
20260904120425 76 44 0.0 2.0 0.00 0.00 0.00 86 1013.4
20260904115917 76 51 1.0 2.0 0.00 0.00 0.00 86 1013.3
20260904115425 76 55 0.0 0.0 0.00 0.00 0.00 86 1013.2
20260904115000 76 58 0.0 0.0 0.00 0.00 0.00 86 1013.3
20260904114424 76 97 0.0 0.0 0.00 0.00 0.00 86 1013.2
20260904113933 76 160 0.0 0.0 0.00 0.00 0.00 86 1013.2
20260904113444 77 169 0.0 0.0 0.00 0.00 0.00 86 1013.2
20260904112915 77 166 0.0 0.0 0.00 0.00 0.00 85 1013.2
20260904112453 77 159 0.0 2.0 0.00 0.00 0.00 85 1013.0
20260904111919 77 159 1.0 2.0 0.00 0.00 0.00 85 1012.9
20260904111427 77 151 0.0 5.0 0.00 0.00 0.00 85 1013.0
20260904110938 77 144 1.0 5.0 0.00 0.00 0.00 85 1012.8
20260904110426 77 161 3.0 5.0 0.00 0.00 0.00 84 1012.7
20260904105936 77 162 1.0 6.0 0.00 0.00 0.00 84 1012.8
20260904105445 77 165 3.0 6.0 0.00 0.00 0.00 84 1012.7
20260904104931 77 175 2.0 5.0 0.00 0.00 0.00 84 1012.6
20260904104423 77 174 1.0 4.0 0.00 0.00 0.00 84 1012.6
20260904103933 78 105 2.0 4.0 0.00 0.00 0.00 84 1012.5
20260904103420 77 111 2.0 6.0 0.00 0.00 0.00 85 1012.4
20260904103000 77 117 3.0 6.0 0.00 0.00 0.00 85 1012.5
20260904102443 77 184 2.0 6.0 0.00 0.00 0.00 85 1012.5
20260904101929 77 174 3.0 8.0 0.00 0.00 0.00 85 1012.3
20260904101420 77 172 4.0 8.0 0.00 0.00 0.00 85 1012.3
20260904100929 77 198 3.0 8.0 0.00 0.00 0.00 86 1012.3
20260904100438 77 193 3.0 6.0 0.00 0.00 0.00 86 1012.4
20260904095946 77 161 3.0 6.0 0.00 0.00 0.00 87 1012.5
20260904095415 77 173 3.0 6.0 0.00 0.00 0.00 87 1012.5
20260904094953 77 175 3.0 5.0 0.00 0.00 0.00 87 1012.6
20260904094421 77 178 3.0 4.0 0.00 0.00 0.00 87 1012.7
20260904093931 77 179 2.0 4.0 0.00 0.00 0.00 87 1012.9
20260904093436 77 175 2.0 4.0 0.00 0.00 0.00 87 1013.1
20260904092930 77 174 2.0 4.0 0.00 0.00 0.00 87 1013.1
20260904092416 77 175 1.0 3.0 0.00 0.00 0.00 87 1013.2
20260904091925 78 360 0.0 0.0 0.00 0.00 0.00 87 1013.3
20260904091437 78 134 0.0 0.0 0.00 0.00 0.00 87 1013.4
20260904090952 78 129 0.0 0.0 0.00 0.00 0.00 87 1013.3
20260904090421 78 129 0.0 0.0 0.00 0.00 0.00 87 1013.4
20260904085933 78 49 0.0 0.0 0.00 0.00 0.00 87 1013.4
20260904085421 78 51 0.0 0.0 0.00 0.00 0.00 87 1013.5
20260904084930 78 126 0.0 0.0 0.00 0.00 0.00 87 1013.4
20260904084422 78 126 0.0 0.0 0.00 0.00 0.00 87 1013.5
20260904083927 78 128 0.0 0.0 0.00 0.00 0.00 87 1013.4
20260904083416 78 360 0.0 0.0 0.00 0.00 0.00 86 1013.5
20260904082922 78 99 0.0 0.0 0.00 0.00 0.00 86 1013.4
20260904082429 78 128 0.0 0.0 0.00 0.00 0.00 86 1013.4
20260904081939 78 117 0.0 0.0 0.00 0.00 0.00 86 1013.4
20260904081433 78 130 0.0 0.0 0.00 0.00 0.00 86 1013.2
20260904080921 78 133 0.0 0.0 0.00 0.00 0.00 86 1013.1
20260904080432 78 128 0.0 1.0 0.00 0.00 0.00 86 1012.9
20260904075920 78 135 0.0 2.0 0.00 0.00 0.00 86 1013.0
20260904075430 78 119 1.0 3.0 0.00 0.00 0.00 86 1012.9
20260904074919 79 131 0.0 3.0 0.00 0.00 0.00 86 1012.8
20260904074430 79 138 0.0 3.0 0.00 0.00 0.00 86 1012.6
20260904073920 79 146 2.0 3.0 0.00 0.00 0.00 86 1012.6
20260904073430 79 175 2.0 4.0 0.00 0.00 0.00 86 1012.6
20260904072921 79 173 2.0 4.0 0.00 0.00 0.00 86 1012.4
20260904072429 79 163 2.0 5.0 0.00 0.00 0.00 85 1012.6
20260904071918 79 164 3.0 5.0 0.00 0.00 0.00 85 1012.7
20260904071446 79 360 2.0 5.0 0.00 0.00 0.00 85 1012.7
20260904070936 79 163 2.0 4.0 0.00 0.00 0.00 85 1012.7
20260904070446 79 165 2.0 5.0 0.00 0.00 0.00 85 1012.8
20260904065918 79 161 0.0 0.0 0.00 0.00 0.00 84 1012.9
20260904065426 80 166 0.0 0.0 0.00 0.00 0.00 84 1012.9
20260904064932 80 161 0.0 0.0 0.00 0.00 0.00 84 1013.1
20260904064424 80 161 0.0 0.0 0.00 0.00 0.00 84 1013.1
20260904063933 80 160 0.0 0.0 0.00 0.00 0.00 83 1013.4
20260904063440 80 157 0.0 0.0 0.00 0.00 0.00 83 1013.4
20260904062931 80 167 0.0 0.0 0.00 0.00 0.00 83 1013.6
20260904062419 80 155 0.0 0.0 0.00 0.00 0.00 83 1013.6
20260904061923 80 360 0.0 0.0 0.00 0.00 0.00 83 1013.7
20260904061431 80 192 0.0 0.0 0.00 0.00 0.00 83 1013.7
20260904060920 80 192 0.0 0.0 0.00 0.00 0.00 83 1013.8
20260904060428 81 192 0.0 0.0 0.00 0.00 0.00 83 1013.8
20260904055920 81 192 0.0 0.0 0.00 0.00 0.00 82 1013.9
20260904055427 81 192 0.0 0.0 0.00 0.00 0.00 82 1013.9
20260904054925 81 192 0.0 0.0 0.00 0.00 0.00 82 1013.9
20260904054417 81 192 0.0 0.0 0.00 0.00 0.00 82 1013.9
20260904053925 81 192 0.0 0.0 0.00 0.00 0.00 82 1013.9
20260904053432 81 192 0.0 1.0 0.00 0.00 0.00 82 1013.9
20260904052925 81 192 0.0 1.0 0.00 0.00 0.00 81 1013.9
20260904052415 82 192 0.0 2.0 0.00 0.00 0.00 81 1013.9
20260904051921 82 192 0.0 3.0 0.00 0.00 0.00 81 1013.9
20260904051450 82 192 2.0 3.0 0.00 0.00 0.00 81 1013.8
20260904050919 82 192 2.0 3.0 0.00 0.00 0.00 81 1013.7
20260904050428 82 154 1.0 2.0 0.00 0.00 0.00 82 1013.6
20260904045919 82 154 0.0 2.0 0.00 0.00 0.00 82 1013.6
20260904045429 82 154 0.0 2.0 0.00 0.00 0.00 82 1013.8
20260904044935 82 154 0.0 2.0 0.00 0.00 0.00 81 1013.7
20260904044425 82 154 0.0 2.0 0.00 0.00 0.00 81 1013.7
20260904043933 82 154 1.0 3.0 0.00 0.00 0.00 81 1013.7
20260904043418 83 154 1.0 3.0 0.00 0.00 0.00 81 1013.7
20260904042926 83 154 1.0 3.0 0.00 0.00 0.00 81 1013.7
20260904042415 83 154 0.0 2.0 0.00 0.00 0.00 81 1013.7
20260904041925 83 154 0.0 3.0 0.00 0.00 0.00 81 1013.8
20260904041432 83 154 2.0 3.0 0.00 0.00 0.00 81 1013.8
20260904040940 83 154 2.0 3.0 0.00 0.00 0.00 82 1013.8
20260904040449 83 154 2.0 2.0 0.00 0.00 0.00 82 1013.8
20260904035937 83 154 1.0 2.0 0.00 0.00 0.00 82 1013.8
20260904035425 83 154 1.0 3.0 0.00 0.00 0.00 81 1013.8
20260904035003 83 154 1.0 3.0 0.00 0.00 0.00 81 1013.8
20260904034425 83 154 0.0 2.0 0.00 0.00 0.00 81 1013.9
20260904033932 83 154 0.0 3.0 0.00 0.00 0.00 81 1014.0
20260904033420 83 154 1.0 3.0 0.00 0.00 0.00 82 1013.9
20260904032930 83 154 1.0 3.0 0.00 0.00 0.00 82 1013.9
20260904032419 83 133 0.0 0.0 0.00 0.00 0.00 82 1013.9
20260904031926 84 133 0.0 0.0 0.00 0.00 0.00 82 1014.0
20260904031432 84 133 0.0 0.0 0.00 0.00 0.00 82 1014.0
20260904030919 84 133 0.0 0.0 0.00 0.00 0.00 82 1013.9
20260904030428 84 133 0.0 0.0 0.00 0.00 0.00 82 1014.0
20260904025919 84 133 0.0 0.0 0.00 0.00 0.00 81 1014.0
20260904025426 84 133 0.0 0.0 0.00 0.00 0.00 81 1013.9
20260904024915 84 133 0.0 0.0 0.00 0.00 0.00 81 1014.0
20260904024428 84 132 0.0 0.0 0.00 0.00 0.00 81 1014.0
20260904023916 84 132 0.0 0.0 0.00 0.00 0.00 80 1014.0
20260904023426 84 132 0.0 0.0 0.00 0.00 0.00 80 1013.9
20260904022918 84 130 0.0 0.0 0.00 0.00 0.00 80 1013.8
20260904022434 85 360 0.0 0.0 0.00 0.00 0.00 80 1013.8
20260904021923 85 96 0.0 0.0 0.00 0.00 0.00 79 1013.8
20260904021435 85 96 0.0 0.0 0.00 0.00 0.00 79 1013.8
20260904020937 85 96 0.0 0.0 0.00 0.00 0.00 79 1013.8
20260904020425 85 96 0.0 0.0 0.00 0.00 0.00 79 1013.8
20260904015917 85 96 0.0 0.0 0.00 0.00 0.00 79 1013.8
20260904015424 85 96 0.0 0.0 0.00 0.00 0.00 79 1013.8
20260904014932 85 95 0.0 0.0 0.00 0.00 0.00 78 1013.7
20260904014424 84 88 0.0 0.0 0.00 0.00 0.00 78 1013.7
20260904013934 84 88 0.0 0.0 0.00 0.00 0.00 78 1013.6
20260904013424 84 88 0.0 0.0 0.00 0.00 0.00 77 1013.4
20260904012955 85 87 0.0 1.0 0.00 0.00 0.00 77 1013.3
20260904012422 85 88 0.0 2.0 0.00 0.00 0.00 76 1013.2
20260904011933 85 88 1.0 2.0 0.00 0.00 0.00 76 1012.9